Time,TemperatureF,DewpointF,PressureIn,WindDirection,WindDirectionDegrees,WindSpeedMPH,WindSpeedGustMPH,Humidity,HourlyPrecipIn,Conditions,Clouds,dailyrainin,SoftwareType,DateUTC
2013-03-04 00:04:00,19.9,11.8,29.79,ESE,111,1.0,4.5,70,0.00,,,-99.99,FreeWX 2.04,2013-03-04 07:04:00,
2013-03-04 00:14:00,19.8,11.7,29.79,ESE,112,2.0,6.3,70,0.00,,,-99.99,FreeWX 2.04,2013-03-04 07:14:00,
2013-03-04 00:24:00,19.6,11.1,29.76,ESE,123,4.0,6.7,69,0.00,,,-99.99,FreeWX 2.04,2013-03-04 07:24:00,
2013-03-04 00:34:00,19.6,11.1,29.76,East,101,3.0,6.3,69,0.00,,,-99.99,FreeWX 2.04,2013-03-04 07:34:00,
2013-03-04 00:44:00,19.2,10.4,29.76,ESE,111,3.0,6.7,68,0.00,,,-99.99,FreeWX 2.04,2013-03-04 07:44:00,
2013-03-04 00:54:00,19.0,10.2,29.76,ESE,112,3.0,6.3,68,0.00,,,-99.99,FreeWX 2.04,2013-03-04 07:54:00,
2013-03-04 01:04:00,19.0,9.9,29.76,ESE,122,5.0,7.8,67,0.00,,,-99.99,FreeWX 2.04,2013-03-04 08:04:00,
2013-03-04 01:14:00,18.9,9.7,29.76,SE,127,3.0,6.7,67,0.00,,,-99.99,FreeWX 2.04,2013-03-04 08:14:00,
2013-03-04 01:24:00,18.9,9.7,29.76,SE,126,4.0,6.7,67,0.00,,,-99.99,FreeWX 2.04,2013-03-04 08:24:00,
2013-03-04 01:34:00,18.5,9.3,29.76,SE,137,4.0,5.8,67,0.00,,,-99.99,FreeWX 2.04,2013-03-04 08:34:00,
2013-03-04 01:44:00,18.5,9.3,29.76,SE,133,2.0,5.4,67,0.00,,,-99.99,FreeWX 2.04,2013-03-04 08:44:00,
2013-03-04 01:54:00,17.6,8.2,29.79,North,-999,0.0,0.0,66,0.00,,,-99.99,FreeWX 2.04,2013-03-04 08:54:00,
2013-03-04 02:04:00,18.1,8.8,29.79,North,-999,0.0,0.0,66,0.00,,,-99.99,FreeWX 2.04,2013-03-04 09:04:00,
2013-03-04 02:14:00,18.1,9.1,29.79,North,-999,0.0,0.0,67,0.00,,,-99.99,FreeWX 2.04,2013-03-04 09:14:00,
2013-03-04 02:24:00,18.3,9.1,29.79,North,-999,0.0,0.0,67,0.00,,,-99.99,FreeWX 2.04,2013-03-04 09:24:00,
2013-03-04 02:34:00,18.1,9.1,29.76,North,-999,0.0,0.0,67,0.00,,,-99.99,FreeWX 2.04,2013-03-04 09:34:00,
2013-03-04 02:44:00,18.0,9.0,29.76,North,-999,0.0,0.0,67,0.00,,,-99.99,FreeWX 2.04,2013-03-04 09:44:00,
2013-03-04 02:54:00,18.1,8.8,29.79,North,-999,0.0,0.0,66,0.00,,,-99.99,FreeWX 2.04,2013-03-04 09:54:00,
2013-03-04 03:04:00,17.6,8.2,29.79,North,-999,0.0,0.0,66,0.00,,,-99.99,FreeWX 2.04,2013-03-04 10:04:00,
2013-03-04 03:14:00,16.9,7.2,29.79,North,-999,0.0,0.0,65,0.00,,,-99.99,FreeWX 2.04,2013-03-04 10:14:00,
2013-03-04 03:24:00,16.7,7.0,29.79,ESE,114,3.0,7.4,65,0.00,,,-99.99,FreeWX 2.04,2013-03-04 10:24:00,
2013-03-04 03:34:00,16.9,6.8,29.79,WNW,303,4.0,7.8,64,0.00,,,-99.99,FreeWX 2.04,2013-03-04 10:34:00,
2013-03-04 03:44:00,16.5,6.4,29.79,West,259,1.0,5.4,64,0.00,,,-99.99,FreeWX 2.04,2013-03-04 10:44:00,
2013-03-04 03:54:00,16.0,5.7,29.79,North,-999,0.0,4.9,63,0.00,,,-99.99,FreeWX 2.04,2013-03-04 10:54:00,
2013-03-04 04:04:00,15.4,5.2,29.79,North,-999,0.0,4.9,63,0.00,,,-99.99,FreeWX 2.04,2013-03-04 11:04:00,
2013-03-04 04:14:00,16.0,5.7,29.79,West,268,2.0,6.7,63,0.00,,,-99.99,FreeWX 2.04,2013-03-04 11:14:00,
2013-03-04 04:24:00,16.2,5.9,29.79,West,271,2.0,4.9,63,0.00,,,-99.99,FreeWX 2.04,2013-03-04 11:24:00,
2013-03-04 04:34:00,16.0,5.7,29.82,North,-999,0.0,4.5,63,0.00,,,-99.99,FreeWX 2.04,2013-03-04 11:34:00,
2013-03-04 04:44:00,15.8,5.9,29.82,North,-999,0.0,0.0,64,0.00,,,-99.99,FreeWX 2.04,2013-03-04 11:44:00,
2013-03-04 04:54:00,15.6,5.7,29.82,North,-999,0.0,0.0,64,0.00,,,-99.99,FreeWX 2.04,2013-03-04 11:54:00,
2013-03-04 05:04:00,15.6,5.7,29.82,North,-999,0.0,0.0,64,0.00,,,-99.99,FreeWX 2.04,2013-03-04 12:04:00,
2013-03-04 05:14:00,15.3,5.4,29.82,North,-999,0.0,0.0,64,0.00,,,-99.99,FreeWX 2.04,2013-03-04 12:14:00,
2013-03-04 05:24:00,15.3,5.4,29.82,North,-999,0.0,0.0,64,0.00,,,-99.99,FreeWX 2.04,2013-03-04 12:24:00,
2013-03-04 05:35:00,15.1,4.8,29.82,North,-999,0.0,0.0,63,0.00,,,-99.99,FreeWX 2.04,2013-03-04 12:35:00,
2013-03-04 05:45:00,14.9,4.6,29.82,North,-999,0.0,0.0,63,0.00,,,-99.99,FreeWX 2.04,2013-03-04 12:45:00,
2013-03-04 05:55:00,14.2,3.6,29.85,North,-999,0.0,0.0,62,0.00,,,-99.99,FreeWX 2.04,2013-03-04 12:55:00,
2013-03-04 06:05:00,13.5,-99.9,29.85,North,-999,0.0,0.0,-999,0.00,,,-99.99,FreeWX 2.04,2013-03-04 13:05:00,
2013-03-04 06:15:00,12.7,-99.9,29.85,North,-999,0.0,4.0,-999,0.00,,,-99.99,FreeWX 2.04,2013-03-04 13:15:00,
2013-03-04 06:25:00,10.8,-99.9,29.85,North,-999,0.0,3.6,-999,0.00,,,-99.99,FreeWX 2.04,2013-03-04 13:25:00,
2013-03-04 06:35:00,10.4,-99.9,29.85,North,-999,0.0,0.0,-999,0.00,,,-99.99,FreeWX 2.04,2013-03-04 13:35:00,
2013-03-04 06:45:00,9.3,-99.9,29.85,North,-999,0.0,0.0,-999,0.00,,,-99.99,FreeWX 2.04,2013-03-04 13:45:00,
2013-03-04 06:55:00,8.8,-99.9,29.88,North,-999,0.0,0.0,-999,0.00,,,-99.99,FreeWX 2.04,2013-03-04 13:55:00,
2013-03-04 07:05:00,8.1,-99.9,29.88,North,-999,0.0,0.0,-999,0.00,,,-99.99,FreeWX 2.04,2013-03-04 14:05:00,
2013-03-04 07:15:00,7.2,-99.9,29.88,North,-999,0.0,0.0,-999,0.00,,,-99.99,FreeWX 2.04,2013-03-04 14:15:00,
2013-03-04 07:25:00,7.2,-99.9,29.88,North,-999,0.0,0.0,-999,0.00,,,-99.99,FreeWX 2.04,2013-03-04 14:25:00,
2013-03-04 07:35:00,7.5,-99.9,29.88,North,-999,0.0,0.0,-999,0.00,,,-99.99,FreeWX 2.04,2013-03-04 14:35:00,
2013-03-04 07:45:00,7.9,-99.9,29.88,North,-999,0.0,0.0,-999,0.00,,,-99.99,FreeWX 2.04,2013-03-04 14:45:00,
2013-03-04 07:55:00,8.6,-99.9,29.88,SW,221,3.0,6.3,-999,0.00,,,-99.99,FreeWX 2.04,2013-03-04 14:55:00,
2013-03-04 08:05:00,10.0,-99.9,29.91,ESE,119,3.0,5.4,-999,0.00,,,-99.99,FreeWX 2.04,2013-03-04 15:05:00,
2013-03-04 08:15:00,12.0,-99.9,29.91,ESE,118,4.0,6.3,-999,0.00,,,-99.99,FreeWX 2.04,2013-03-04 15:15:00,
2013-03-04 08:25:00,14.2,1.8,29.91,ESE,110,3.0,5.4,57,0.00,,,-99.99,FreeWX 2.04,2013-03-04 15:25:00,
2013-03-04 08:35:00,16.0,3.0,29.91,North,-999,0.0,4.9,56,0.00,,,-99.99,FreeWX 2.04,2013-03-04 15:35:00,
2013-03-04 08:45:00,17.6,5.0,29.91,North,-999,0.0,0.0,57,0.00,,,-99.99,FreeWX 2.04,2013-03-04 15:45:00,
2013-03-04 08:55:00,16.5,0.7,29.91,North,-999,0.0,0.0,49,0.00,,,-99.99,FreeWX 2.04,2013-03-04 15:55:00,
2013-03-04 09:05:00,16.0,2.3,29.91,North,-999,0.0,0.0,54,0.00,,,-99.99,FreeWX 2.04,2013-03-04 16:05:00,
2013-03-04 09:15:00,15.8,1.4,29.91,North,-999,0.0,0.0,52,0.00,,,-99.99,FreeWX 2.04,2013-03-04 16:15:00,
2013-03-04 09:25:00,15.6,-0.9,29.94,NNW,329,2.0,6.9,47,0.00,,,-99.99,FreeWX 2.04,2013-03-04 16:25:00,
2013-03-04 09:35:00,15.4,-2.0,29.94,NNW,332,6.0,7.4,45,0.00,,,-99.99,FreeWX 2.04,2013-03-04 16:35:00,
2013-03-04 09:45:00,15.8,-1.3,29.94,NW,323,5.0,7.4,46,0.00,,,-99.99,FreeWX 2.04,2013-03-04 16:45:00,
2013-03-04 09:55:00,16.5,-0.6,29.94,WNW,300,3.0,6.3,46,0.00,,,-99.99,FreeWX 2.04,2013-03-04 16:55:00,
2013-03-04 10:05:00,18.3,1.6,29.94,WSW,248,2.0,4.9,47,0.00,,,-99.99,FreeWX 2.04,2013-03-04 17:05:00,
2013-03-04 10:15:00,19.2,1.9,29.94,SW,233,2.0,5.4,46,0.00,,,-99.99,FreeWX 2.04,2013-03-04 17:15:00,
2013-03-04 10:25:00,19.2,0.9,29.94,SW,232,2.0,4.9,44,0.00,,,-99.99,FreeWX 2.04,2013-03-04 17:25:00,
2013-03-04 10:35:00,19.6,0.7,29.94,SW,227,2.0,5.4,43,0.00,,,-99.99,FreeWX 2.04,2013-03-04 17:35:00,
2013-03-04 10:45:00,18.9,-2.0,29.94,SW,235,3.0,5.4,39,0.00,,,-99.99,FreeWX 2.04,2013-03-04 17:45:00,
2013-03-04 10:55:00,19.8,0.5,29.94,SW,229,2.0,5.8,42,0.00,,,-99.99,FreeWX 2.04,2013-03-04 17:55:00,
2013-03-04 11:05:00,20.5,0.5,29.97,SW,235,1.0,5.4,41,0.00,,,-99.99,FreeWX 2.04,2013-03-04 18:05:00,
2013-03-04 11:15:00,20.8,-0.2,29.97,SW,228,2.0,4.5,39,0.00,,,-99.99,FreeWX 2.04,2013-03-04 18:15:00,
2013-03-04 11:25:00,21.0,-2.4,29.97,SW,224,1.0,4.0,35,0.00,,,-99.99,FreeWX 2.04,2013-03-04 18:25:00,
2013-03-04 11:35:00,22.1,1.0,29.97,WNW,283,1.0,5.8,39,0.04,,,-99.99,FreeWX 2.04,2013-03-04 18:35:00,
2013-03-04 11:45:00,20.5,-4.0,29.97,NNW,338,3.0,5.8,33,0.04,,,-99.99,FreeWX 2.04,2013-03-04 18:45:00,
2013-03-04 11:55:00,21.4,-2.6,29.97,North,350,2.0,4.9,34,0.04,,,-99.99,FreeWX 2.04,2013-03-04 18:55:00,
2013-03-04 12:05:00,21.2,-5.3,29.97,North,350,1.0,4.9,30,0.04,,,-99.99,FreeWX 2.04,2013-03-04 19:05:00,
2013-03-04 12:15:00,21.7,-3.5,29.97,North,4,2.0,5.4,32,0.04,,,-99.99,FreeWX 2.04,2013-03-04 19:15:00,
2013-03-04 12:25:00,21.0,-5.4,29.97,NNW,337,3.0,5.4,30,0.04,,,-99.99,FreeWX 2.04,2013-03-04 19:25:00,
2013-03-04 12:35:00,21.6,-7.2,29.97,NNW,336,4.0,6.3,27,0.00,,,-99.99,FreeWX 2.04,2013-03-04 19:35:00,
2013-03-04 12:45:00,21.6,-7.2,29.97,NNW,334,3.0,5.8,27,0.00,,,-99.99,FreeWX 2.04,2013-03-04 19:45:00,
2013-03-04 12:55:00,22.5,-6.3,29.97,NNW,340,3.0,6.3,27,0.00,,,-99.99,FreeWX 2.04,2013-03-04 19:55:00,
2013-03-04 13:05:00,21.9,-6.9,29.97,NNW,339,3.0,5.4,27,0.00,,,-99.99,FreeWX 2.04,2013-03-04 20:05:00,
2013-03-04 13:15:00,22.1,-6.7,29.97,NNW,347,4.0,6.7,27,0.00,,,-99.99,FreeWX 2.04,2013-03-04 20:15:00,
2013-03-04 13:25:00,21.9,-6.9,29.97,NNW,331,4.0,6.7,27,0.00,,,-99.99,FreeWX 2.04,2013-03-04 20:25:00,
2013-03-04 13:35:00,21.4,-8.9,30.00,NNW,327,5.0,7.4,25,0.00,,,-99.99,FreeWX 2.04,2013-03-04 20:35:00,
2013-03-04 13:45:00,22.1,-8.3,30.00,NNW,328,6.0,7.8,25,0.00,,,-99.99,FreeWX 2.04,2013-03-04 20:45:00,
2013-03-04 13:55:00,22.6,-10.5,30.00,NNW,340,5.0,8.3,22,0.00,,,-99.99,FreeWX 2.04,2013-03-04 20:55:00,
2013-03-04 14:05:00,21.9,-11.0,30.00,NNW,334,6.0,9.2,22,0.00,,,-99.99,FreeWX 2.04,2013-03-04 21:05:00,
2013-03-04 14:15:00,21.6,-11.4,30.00,NNW,338,6.0,8.7,22,0.00,,,-99.99,FreeWX 2.04,2013-03-04 21:15:00,
2013-03-04 14:25:00,21.7,-11.2,30.00,NNW,341,6.0,10.1,22,0.00,,,-99.99,FreeWX 2.04,2013-03-04 21:25:00,
2013-03-04 14:35:00,21.6,-11.4,30.00,NNW,346,7.0,9.6,22,0.00,,,-99.99,FreeWX 2.04,2013-03-04 21:35:00,
2013-03-04 14:45:00,21.6,-11.4,30.00,NNW,336,7.0,10.5,22,0.00,,,-99.99,FreeWX 2.04,2013-03-04 21:45:00,
2013-03-04 14:55:00,21.4,-11.6,30.00,NW,326,7.0,9.2,22,0.00,,,-99.99,FreeWX 2.04,2013-03-04 21:55:00,
2013-03-04 15:05:00,21.0,-11.7,30.00,NW,322,8.0,11.0,22,0.00,,,-99.99,FreeWX 2.04,2013-03-04 22:05:00,
2013-03-04 15:15:00,21.2,-11.6,30.00,NNW,331,7.0,9.6,22,0.00,,,-99.99,FreeWX 2.04,2013-03-04 22:15:00,
2013-03-04 15:25:00,21.2,-11.6,30.00,NNW,338,7.0,9.6,22,0.00,,,-99.99,FreeWX 2.04,2013-03-04 22:25:00,
2013-03-04 15:35:00,21.0,-9.2,30.00,NNW,335,6.0,8.7,25,0.00,,,-99.99,FreeWX 2.04,2013-03-04 22:35:00,
2013-03-04 15:45:00,20.8,-11.9,30.00,NNW,328,6.0,8.7,22,0.00,,,-99.99,FreeWX 2.04,2013-03-04 22:45:00,
2013-03-04 15:55:00,21.6,-11.4,30.00,NW,326,5.0,7.4,22,0.00,,,-99.99,FreeWX 2.04,2013-03-04 22:55:00,
2013-03-04 16:05:00,21.6,-11.4,30.00,NNW,329,4.0,6.3,22,0.00,,,-99.99,FreeWX 2.04,2013-03-04 23:05:00,
2013-03-04 16:15:00,22.1,-10.8,30.00,NW,315,4.0,6.3,22,0.00,,,-99.99,FreeWX 2.04,2013-03-04 23:15:00,
2013-03-04 16:25:00,23.2,-9.9,30.00,NW,305,2.0,6.7,22,0.00,,,-99.99,FreeWX 2.04,2013-03-04 23:25:00,
2013-03-04 16:35:00,24.1,-12.1,30.00,North,-999,0.0,4.9,19,0.00,,,-99.99,FreeWX 2.04,2013-03-04 23:35:00,
2013-03-04 16:45:00,24.3,-11.9,30.00,WSW,243,1.0,5.8,19,0.00,,,-99.99,FreeWX 2.04,2013-03-04 23:45:00,
2013-03-04 16:55:00,24.4,-11.9,30.00,North,-999,0.0,4.5,19,0.00,,,-99.99,FreeWX 2.04,2013-03-04 23:55:00,
2013-03-04 17:05:00,24.6,-11.7,30.00,North,-999,0.0,0.0,19,0.00,,,-99.99,FreeWX 2.04,2013-03-05 00:05:00,
2013-03-04 17:16:00,23.4,-11.7,30.00,North,-999,0.0,0.0,20,0.00,,,-99.99,FreeWX 2.04,2013-03-05 00:16:00,
2013-03-04 17:26:00,22.5,-12.5,30.00,North,-999,0.0,0.0,20,0.00,,,-99.99,FreeWX 2.04,2013-03-05 00:26:00,
2013-03-04 17:36:00,20.3,-14.3,30.00,North,-999,0.0,0.0,20,0.00,,,-99.99,FreeWX 2.04,2013-03-05 00:36:00,
2013-03-04 17:46:00,19.6,-15.0,30.00,North,-999,0.0,0.0,20,0.00,,,-99.99,FreeWX 2.04,2013-03-05 00:46:00,
2013-03-04 17:56:00,19.0,-15.3,30.00,North,-999,0.0,0.0,20,0.00,,,-99.99,FreeWX 2.04,2013-03-05 00:56:00,
2013-03-04 18:06:00,16.7,-14.6,30.00,SSE,167,2.0,6.3,23,0.00,,,-99.99,FreeWX 2.04,2013-03-05 01:06:00,
2013-03-04 18:16:00,15.3,-8.0,30.00,ESE,118,4.0,6.7,34,0.00,,,-99.99,FreeWX 2.04,2013-03-05 01:16:00,
2013-03-04 18:26:00,15.3,-7.4,30.00,ESE,109,4.0,7.4,35,0.00,,,-99.99,FreeWX 2.04,2013-03-05 01:26:00,
2013-03-04 18:36:00,15.4,-7.2,30.00,ESE,111,5.0,8.7,35,0.00,,,-99.99,FreeWX 2.04,2013-03-05 01:36:00,
2013-03-04 18:46:00,14.9,-7.2,30.00,ESE,114,6.0,11.0,36,0.00,,,-99.99,FreeWX 2.04,2013-03-05 01:46:00,
2013-03-04 18:56:00,14.2,-7.2,30.00,ESE,106,6.0,10.5,37,0.00,,,-99.99,FreeWX 2.04,2013-03-05 01:56:00,
2013-03-04 19:06:00,13.6,-99.9,30.00,East,100,6.0,10.5,-999,0.00,,,-99.99,FreeWX 2.04,2013-03-05 02:06:00,
2013-03-04 19:16:00,14.0,-7.4,30.00,ESE,102,6.0,13.4,37,0.00,,,-99.99,FreeWX 2.04,2013-03-05 02:16:00,
2013-03-04 19:26:00,14.0,-8.0,30.00,ESE,108,7.0,12.1,36,0.00,,,-99.99,FreeWX 2.04,2013-03-05 02:26:00,
2013-03-04 19:36:00,12.7,-99.9,30.03,ESE,103,8.0,12.1,-999,0.00,,,-99.99,FreeWX 2.04,2013-03-05 02:36:00,
2013-03-04 19:46:00,12.6,-99.9,30.03,ESE,113,7.0,13.4,-999,0.00,,,-99.99,FreeWX 2.04,2013-03-05 02:46:00,
2013-03-04 19:56:00,12.0,-99.9,30.03,ESE,111,6.0,11.0,-999,0.00,,,-99.99,FreeWX 2.04,2013-03-05 02:56:00,
2013-03-04 20:06:00,11.1,-99.9,30.03,East,101,6.0,10.1,-999,0.00,,,-99.99,FreeWX 2.04,2013-03-05 03:06:00,
2013-03-04 20:16:00,11.5,-99.9,30.03,ESE,109,6.0,11.0,-999,0.00,,,-99.99,FreeWX 2.04,2013-03-05 03:16:00,
2013-03-04 20:26:00,11.7,-99.9,30.03,ESE,112,7.0,11.2,-999,0.00,,,-99.99,FreeWX 2.04,2013-03-05 03:26:00,
2013-03-04 20:36:00,11.3,-99.9,30.03,ESE,111,6.0,10.1,-999,0.00,,,-99.99,FreeWX 2.04,2013-03-05 03:36:00,
2013-03-04 20:46:00,11.5,-99.9,30.03,ESE,103,7.0,10.5,-999,0.00,,,-99.99,FreeWX 2.04,2013-03-05 03:46:00,
2013-03-04 20:56:00,10.9,-99.9,30.03,ESE,107,6.0,11.6,-999,0.00,,,-99.99,FreeWX 2.04,2013-03-05 03:56:00,
2013-03-04 21:06:00,10.9,-99.9,30.03,ESE,105,7.0,11.6,-999,0.00,,,-99.99,FreeWX 2.04,2013-03-05 04:06:00,
2013-03-04 21:16:00,10.8,-99.9,30.03,ESE,111,7.0,11.2,-999,0.00,,,-99.99,FreeWX 2.04,2013-03-05 04:16:00,
2013-03-04 21:26:00,10.9,-99.9,30.03,ESE,113,7.0,11.0,-999,0.00,,,-99.99,FreeWX 2.04,2013-03-05 04:26:00,
2013-03-04 21:36:00,10.4,-99.9,30.03,ESE,105,6.0,10.1,-999,0.00,,,-99.99,FreeWX 2.04,2013-03-05 04:36:00,
2013-03-04 21:46:00,10.8,-99.9,30.03,ESE,109,7.0,12.5,-999,0.00,,,-99.99,FreeWX 2.04,2013-03-05 04:46:00,
2013-03-04 21:56:00,10.4,-99.9,30.03,ESE,113,7.0,13.4,-999,0.00,,,-99.99,FreeWX 2.04,2013-03-05 04:56:00,
2013-03-04 22:06:00,10.4,-99.9,30.03,ESE,108,7.0,11.6,-999,0.00,,,-99.99,FreeWX 2.04,2013-03-05 05:06:00,
2013-03-04 22:16:00,10.9,-99.9,30.03,ESE,108,7.0,13.0,-999,0.00,,,-99.99,FreeWX 2.04,2013-03-05 05:16:00,
2013-03-04 22:26:00,10.6,-99.9,30.03,ESE,107,7.0,12.1,-999,0.00,,,-99.99,FreeWX 2.04,2013-03-05 05:26:00,
2013-03-04 22:36:00,10.2,-99.9,30.03,ESE,104,7.0,11.2,-999,0.00,,,-99.99,FreeWX 2.04,2013-03-05 05:36:00,
2013-03-04 22:46:00,10.2,-99.9,30.03,ESE,105,6.0,11.6,-999,0.00,,,-99.99,FreeWX 2.04,2013-03-05 05:46:00,
2013-03-04 22:56:00,10.4,-99.9,30.03,ESE,111,7.0,12.1,-999,0.00,,,-99.99,FreeWX 2.04,2013-03-05 05:56:00,
2013-03-04 23:06:00,10.4,-99.9,30.03,ESE,117,8.0,13.9,-999,0.00,,,-99.99,FreeWX 2.04,2013-03-05 06:06:00,
2013-03-04 23:16:00,10.2,-99.9,30.03,ESE,112,7.0,11.6,-999,0.00,,,-99.99,FreeWX 2.04,2013-03-05 06:16:00,
2013-03-04 23:26:00,10.6,-99.9,30.03,ESE,114,7.0,11.6,-999,0.00,,,-99.99,FreeWX 2.04,2013-03-05 06:26:00,
2013-03-04 23:36:00,10.8,-99.9,30.03,ESE,107,7.0,12.5,-999,0.00,,,-99.99,FreeWX 2.04,2013-03-05 06:36:00,
2013-03-04 23:46:00,10.4,-99.9,30.03,ESE,110,8.0,12.5,-999,0.00,,,-99.99,FreeWX 2.04,2013-03-05 06:46:00,
2013-03-04 23:56:00,10.4,-99.9,30.03,ESE,110,7.0,11.2,-999,0.00,,,-99.99,FreeWX 2.04,2013-03-05 06:56:00,